Weather History for Cork, Ireland

Change the Weather History Date:

Thursday, October 25, 2012

  Actual Average Record
Temperature  
Mean Temperature 54 °F -  
Max Temperature 57 °F 51 °F 68 °F (1996)
Min Temperature 50 °F 41 °F 35 °F (2003)
Degree Days  
Heating Degree Days 12    
Growing Degree Days 4 (Base 50)    
Moisture  
Dew Point 51 °F    
Average Humidity 92    
Maximum Humidity 100    
Minimum Humidity 74    
Precipitation  
Precipitation 0.04 in 0.15 in - ()
Sea Level Pressure  
Sea Level Pressure 29.98 in    
Wind  
Wind Speed 13 mph ()    
Max Wind Speed 17 mph    
Max Gust Speed -    
Visibility 5.8 miles    
Events Rain    
Averages and records for this station are not official NWS values.
T = Trace of Precipitation, MM = Missing Value Source: Averaged Metar Reports

Daily Weather History Graph

Daily Weather History Graph

Search for Another Location

Airport:

Trip Planner

Search our weather history database for the weather conditions in past years. The results will help you decide how hot, cold, wet, or windy it might be!

Date:

Astronomy

Oct. 25, 2012 Rise Set
Actual Time 8:16 AM IST 6:18 PM IST
Civil Twilight 7:41 AM IST 6:53 PM IST
Nautical Twilight 7:02 AM IST 7:32 PM IST
Astronomical Twilight 6:23 AM IST 8:11 PM IST
Moon 4:21 PM IST (10/25) 3:31 AM IST (10/25)
Length of Visible Light 11h 11m
Length of Day
10h 02m
Waxing Gibbous, 82% of the Moon is Illuminated
Oct 25
Waxing Gibbous
Oct 29
Full
Nov 7
Last Quarter
Nov 13
New
Nov 20
First Quarter

Hourly Weather History & Observations

Time (IST) Temp. Dew Point Humidity Pressure Visibility Wind Dir Wind Speed Gust Speed Precip Events Conditions
12:00 AM 53.6 °F 53.6 °F 100% 30.04 in 2.8 mi NE 13.8 mph - N/A   Light Drizzle
12:30 AM 53.6 °F 53.6 °F 100% 30.04 in 2.8 mi NE 12.7 mph - N/A   Light Drizzle
1:00 AM 54 °F 53 °F 95% 30.05 in 3 mi NE 13.4 mph - - Rain Light Drizzle
1:00 AM 53.6 °F 53.6 °F 100% 30.04 in 3.1 mi NE 12.7 mph - N/A   Light Drizzle
1:30 AM 53.6 °F 53.6 °F 100% 30.04 in 3.7 mi NE 15.0 mph - N/A   Light Drizzle
2:00 AM 53.6 °F 53.6 °F 100% 30.01 in 3.7 mi ENE 16.1 mph - N/A   Light Drizzle
2:30 AM 53.6 °F 53.6 °F 100% 30.01 in 2.2 mi NE 15.0 mph - N/A   Light Drizzle
3:00 AM 53.6 °F 53.6 °F 100% 30.01 in 3.7 mi NE 15.0 mph - N/A   Mostly Cloudy
3:30 AM 53.6 °F 53.6 °F 100% 30.01 in 2.5 mi ENE 15.0 mph - N/A   Light Drizzle
4:00 AM 53.6 °F 53.6 °F 100% 29.98 in 4.3 mi NE 16.1 mph - N/A   Mostly Cloudy
4:30 AM 53.6 °F 51.8 °F 94% 29.98 in 5.0 mi NE 13.8 mph - N/A   Mostly Cloudy
5:00 AM 53.6 °F 51.8 °F 94% 29.98 in 6.2 mi NE 15.0 mph - N/A   Mostly Cloudy
5:30 AM 53.6 °F 51.8 °F 94% 29.98 in 6.2 mi NE 13.8 mph - N/A   Mostly Cloudy
6:00 AM 53.6 °F 51.8 °F 94% 29.98 in 6.2 mi NE 15.0 mph - N/A   Mostly Cloudy
6:30 AM 53.6 °F 51.8 °F 94% 29.98 in 6.2 mi NE 16.1 mph - N/A   Mostly Cloudy
7:00 AM 53 °F 52 °F 95% 29.99 in 11 mi ENE 15.7 mph - -   Partly Cloudy
7:00 AM 53.6 °F 51.8 °F 94% 29.98 in 6.2 mi ENE 15.0 mph - N/A   Mostly Cloudy
7:30 AM 53.6 °F 51.8 °F 94% 29.98 in 6.2 mi NE 13.8 mph - N/A   Mostly Cloudy
8:00 AM 53.6 °F 51.8 °F 94% 29.98 in 6.2 mi NE 12.7 mph - N/A   Mostly Cloudy
8:30 AM 53.6 °F 51.8 °F 94% 29.98 in 6.2 mi NE 12.7 mph - N/A   Mostly Cloudy
9:00 AM 53.6 °F 51.8 °F 94% 29.98 in 6.2 mi NE 13.8 mph - N/A   Mostly Cloudy
9:30 AM 53.6 °F 51.8 °F 94% 29.98 in 6.2 mi NE 16.1 mph - N/A   Mostly Cloudy
10:00 AM 53.6 °F 51.8 °F 94% 29.98 in 6.2 mi NE 15.0 mph - N/A   Mostly Cloudy
10:30 AM 53.6 °F 51.8 °F 94% 29.98 in 6.2 mi NE 13.8 mph - N/A   Mostly Cloudy
11:00 AM 53.6 °F 51.8 °F 94% 29.98 in 6.2 mi NE 13.8 mph - N/A   Mostly Cloudy
11:30 AM 55.4 °F 51.8 °F 88% 29.98 in 6.2 mi NE 13.8 mph - N/A   Mostly Cloudy
12:00 PM 55.4 °F 51.8 °F 88% 29.98 in 6.2 mi NE 15.0 mph - N/A   Mostly Cloudy
12:30 PM 57.2 °F 51.8 °F 82% 29.98 in 6.2 mi NE 16.1 mph - N/A   Mostly Cloudy
1:00 PM 57 °F 51 °F 74% 29.99 in 16 mi ENE 15.7 mph - -   Mostly Cloudy
1:00 PM 57.2 °F 51.8 °F 82% 29.98 in 6.2 mi ENE 16.1 mph - N/A   Mostly Cloudy
1:30 PM 57.2 °F 51.8 °F 82% 29.98 in 6.2 mi North 16.1 mph - N/A   Mostly Cloudy
2:00 PM 55.4 °F 50.0 °F 82% 29.98 in 6.2 mi ENE 16.1 mph - N/A   Mostly Cloudy
2:30 PM 55.4 °F 51.8 °F 88% 29.98 in 6.2 mi NE 15.0 mph - N/A   Mostly Cloudy
3:00 PM 55.4 °F 50.0 °F 82% 29.98 in 6.2 mi NE 12.7 mph - N/A   Mostly Cloudy
3:30 PM 55.4 °F 50.0 °F 82% 29.95 in 6.2 mi NE 15.0 mph - N/A   Mostly Cloudy
4:00 PM 55.4 °F 50.0 °F 82% 29.95 in 6.2 mi NE 13.8 mph - N/A   Mostly Cloudy
4:30 PM 55.4 °F 50.0 °F 82% 29.95 in 6.2 mi NE 17.3 mph - N/A   Mostly Cloudy
5:00 PM 55.4 °F 50.0 °F 82% 29.95 in 6.2 mi NE 15.0 mph - N/A   Mostly Cloudy
5:30 PM 55.4 °F 50.0 °F 82% 29.95 in 6.2 mi ENE 12.7 mph - N/A   Mostly Cloudy
6:00 PM 53.6 °F 50.0 °F 88% 29.95 in 6.2 mi NE 11.5 mph - N/A   Mostly Cloudy
6:30 PM 53.6 °F 50.0 °F 88% 29.95 in 6.2 mi NE 13.8 mph - N/A   Mostly Cloudy
7:00 PM 53 °F 50 °F 87% 29.98 in 11 mi NE 13.4 mph - - Rain Light Rain
7:00 PM 53.6 °F 50.0 °F 88% 29.98 in 6.2 mi NE 13.8 mph - N/A   Mostly Cloudy
7:30 PM 51.8 °F 50.0 °F 94% 29.98 in 4.3 mi NE 15.0 mph - N/A Rain Light Rain
8:00 PM 51.8 °F 50.0 °F 94% 29.98 in 4.3 mi NE 13.8 mph - N/A Rain Light Rain
8:30 PM 50.0 °F 50.0 °F 100% 29.98 in 4.3 mi NNE 13.8 mph - N/A   Light Drizzle
9:00 PM 50.0 °F 50.0 °F 100% 29.98 in 5.6 mi NE 13.8 mph - N/A   Mostly Cloudy
9:30 PM 50.0 °F 48.2 °F 94% 29.98 in 6.2 mi NNE 13.8 mph - N/A   Mostly Cloudy
10:00 PM 50.0 °F 48.2 °F 94% 29.98 in 5.0 mi NE 16.1 mph - N/A   Light Drizzle
10:30 PM 50.0 °F 48.2 °F 94% 29.98 in 3.7 mi NE 15.0 mph - N/A Rain Light Rain
11:00 PM 50.0 °F 48.2 °F 94% 29.98 in 6.2 mi NE 17.3 mph - N/A Rain Light Rain
11:30 PM 50.0 °F 48.2 °F 94% 29.98 in 6.2 mi NE 16.1 mph - N/A Rain Light Rain